Multibeam Report for NF-07-03-CSC


Ship Name: Nancy Foster
Chief Scientist: Sautter, Leslie
College of Charleston
Source Organization: National Oceanic and Atmospheric Administration (NOAA)
Start Date: 2006-11-09
End Date: 2006-11-11


View ISO Metadata

Visit the full NCEI Bathymetry Viewer


Multibeam Bathymetry

Cruise Details

Project: Multibeam Investigation of the Continental Shelf
Instrument: Simrad EM1002

Data Quality

Number of Files: 84
Number of Records: 638616
BATHYMETRY DATA Quantity Percentage
Number of Beams 70886376 100%
Number of Good Beams 70848988 99.95%
Number of Zero Beams 37388 0.05%
Number of Flagged Beams 0 0%
AMPLITUDE DATA Quantity Percentage
Number of Beams 70886376 100%
Number of Good Beams 70848988 99.95%
Number of Zero Beams 37388 0.05%
Number of Flagged Beams 0 0%
SIDESCAN DATA Quantity Percentage
Number of Pixels 653942784 100%
Number of Good Pixels 428237960 65.49%
Number of Zero Pixels 0 0%
Number of Flagged Pixels 225704824 34.51%

Navigation Totals

Total Time: 32.7353 hours
Total Track Length: 377.8796 km
Average Speed: 11.543 km/hr (6.2327 knots)

Cruise Bounds

Northern Extent: 32.810326
Southern Extent: 32.00968
Western Extent: -79.91402
Eastern Extent: -79.13805

Limits

Minimum Sonar Depth 2.34 Maximum Sonar Depth 5.19
Minimum Altitude 0 Maximum Altitude 314.3
Minimum Depth 1.81 Maximum Depth 676.71
Minimum Amplitude 0 Maximum Amplitude 49
Minimum Sidescan 0 Maximum Sidescan 48.5

File Information

Full Resolution Bathymetry as collected (raw): 83

Files File Size Description
0001_20061109_180843_raw.all.mb56.gz 42.21MB Simrad multibeam vendor format
0002_20061109_183901_raw.all.mb56.gz 38.65MB Simrad multibeam vendor format
0003_20061109_190704_raw.all.mb56.gz 22.27MB Simrad multibeam vendor format
0004_20061109_192242_raw.all.mb56.gz 29.14MB Simrad multibeam vendor format
0005_20061109_194322_raw.all.mb56.gz 19.16MB Simrad multibeam vendor format
0006_20061109_200941_raw.all.mb56.gz 0.54MB Simrad multibeam vendor format
0007_20061109_203422_raw.all.mb56.gz 42.46MB Simrad multibeam vendor format
0008_20061109_210518_raw.all.mb56.gz 37.56MB Simrad multibeam vendor format
0009_20061109_213209_raw.all.mb56.gz 7.59MB Simrad multibeam vendor format
0010_20061109_215515_raw.all.mb56.gz 35.49MB Simrad multibeam vendor format
0011_20061109_222113_raw.all.mb56.gz 37.70MB Simrad multibeam vendor format
0012_20061109_224818_raw.all.mb56.gz 34.27MB Simrad multibeam vendor format
0013_20061109_231330_raw.all.mb56.gz 36.45MB Simrad multibeam vendor format
0014_20061109_233953_raw.all.mb56.gz 34.65MB Simrad multibeam vendor format
0015_20061110_000531_raw.all.mb56.gz 37.64MB Simrad multibeam vendor format
0016_20061110_003257_raw.all.mb56.gz 41.28MB Simrad multibeam vendor format
0017_20061110_010342_raw.all.mb56.gz 40.09MB Simrad multibeam vendor format
0019_20061110_021016_raw.all.mb56.gz 32.22MB Simrad multibeam vendor format
0020_20061110_023435_raw.all.mb56.gz 37.21MB Simrad multibeam vendor format
0021_20061110_030221_raw.all.mb56.gz 46.34MB Simrad multibeam vendor format
0022_20061110_033711_raw.all.mb56.gz 27.00MB Simrad multibeam vendor format
0023_20061110_071841_raw.all.mb56.gz 6.50MB Simrad multibeam vendor format
0024_20061110_072325_raw.all.mb56.gz 18.38MB Simrad multibeam vendor format
0025_20061110_073702_raw.all.mb56.gz 44.33MB Simrad multibeam vendor format
0026_20061110_080842_raw.all.mb56.gz 16.21MB Simrad multibeam vendor format
0027_20061110_115025_raw.all.mb56.gz 3.58MB Simrad multibeam vendor format
0028_20061110_115411_raw.all.mb56.gz 33.43MB Simrad multibeam vendor format
0029_20061110_122931_raw.all.mb56.gz 20.35MB Simrad multibeam vendor format
0030_20061110_125152_raw.all.mb56.gz 19.74MB Simrad multibeam vendor format
0031_20061110_131247_raw.all.mb56.gz 30.81MB Simrad multibeam vendor format
0032_20061110_134748_raw.all.mb56.gz 451.5KB Simrad multibeam vendor format
0033_20061110_135501_raw.all.mb56.gz 12.43MB Simrad multibeam vendor format
0034_20061110_140806_raw.all.mb56.gz 39.44MB Simrad multibeam vendor format
0035_20061110_145007_raw.all.mb56.gz 39.16MB Simrad multibeam vendor format
0036_20061110_153222_raw.all.mb56.gz 9.78MB Simrad multibeam vendor format
0037_20061110_154311_raw.all.mb56.gz 11.75MB Simrad multibeam vendor format
0038_20061110_155802_raw.all.mb56.gz 36.59MB Simrad multibeam vendor format
0039_20061110_163821_raw.all.mb56.gz 40.30MB Simrad multibeam vendor format
0040_20061110_172223_raw.all.mb56.gz 43.33MB Simrad multibeam vendor format
0043_20061110_191830_raw.all.mb56.gz 28.82MB Simrad multibeam vendor format
0044_20061110_194823_raw.all.mb56.gz 45.42MB Simrad multibeam vendor format
0045_20061110_203538_raw.all.mb56.gz 39.42MB Simrad multibeam vendor format
0046_20061110_211715_raw.all.mb56.gz 1.27MB Simrad multibeam vendor format
0047_20061111_025709_raw.all.mb56.gz 42.32MB Simrad multibeam vendor format
0048_20061111_035139_raw.all.mb56.gz 0.90MB Simrad multibeam vendor format
0049_20061111_041236_raw.all.mb56.gz 19.60MB Simrad multibeam vendor format
0050_20061111_044011_raw.all.mb56.gz 25.26MB Simrad multibeam vendor format
0051_20061111_051933_raw.all.mb56.gz 2.77MB Simrad multibeam vendor format
0052_20061111_053217_raw.all.mb56.gz 12.94MB Simrad multibeam vendor format
0053_20061111_055457_raw.all.mb56.gz 4.66MB Simrad multibeam vendor format
0054_20061111_060258_raw.all.mb56.gz 8.53MB Simrad multibeam vendor format
0055_20061111_061707_raw.all.mb56.gz 25.30MB Simrad multibeam vendor format
0056_20061111_065520_raw.all.mb56.gz 30.22MB Simrad multibeam vendor format
0057_20061111_073555_raw.all.mb56.gz 13.03MB Simrad multibeam vendor format
0058_20061111_075206_raw.all.mb56.gz 9.27MB Simrad multibeam vendor format
0059_20061111_080444_raw.all.mb56.gz 3.19MB Simrad multibeam vendor format
0060_20061111_080843_raw.all.mb56.gz 69.91MB Simrad multibeam vendor format
0061_20061111_092703_raw.all.mb56.gz 74.33MB Simrad multibeam vendor format
0062_20061111_103825_raw.all.mb56.gz 21.01MB Simrad multibeam vendor format
0063_20061111_105729_raw.all.mb56.gz 31.05MB Simrad multibeam vendor format
0064_20061111_111933_raw.all.mb56.gz 19.96MB Simrad multibeam vendor format
0065_20061111_113432_raw.all.mb56.gz 12.09MB Simrad multibeam vendor format
0066_20061111_114321_raw.all.mb56.gz 9.15MB Simrad multibeam vendor format
0067_20061111_115008_raw.all.mb56.gz 5.21MB Simrad multibeam vendor format
0068_20061111_115401_raw.all.mb56.gz 28.79MB Simrad multibeam vendor format
0069_20061111_121557_raw.all.mb56.gz 13.15MB Simrad multibeam vendor format
0070_20061111_122529_raw.all.mb56.gz 17.84MB Simrad multibeam vendor format
0071_20061111_123824_raw.all.mb56.gz 24.36MB Simrad multibeam vendor format
0073_20061111_125931_raw.all.mb56.gz 27.79MB Simrad multibeam vendor format
0074_20061111_132046_raw.all.mb56.gz 33.42MB Simrad multibeam vendor format
0075_20061111_134542_raw.all.mb56.gz 31.43MB Simrad multibeam vendor format
0076_20061111_140933_raw.all.mb56.gz 34.50MB Simrad multibeam vendor format
0077_20061111_143516_raw.all.mb56.gz 40.62MB Simrad multibeam vendor format
0078_20061111_150550_raw.all.mb56.gz 33.59MB Simrad multibeam vendor format
0079_20061111_153046_raw.all.mb56.gz 3.92MB Simrad multibeam vendor format
0080_20061111_153353_raw.all.mb56.gz 22.07MB Simrad multibeam vendor format
0081_20061111_155033_raw.all.mb56.gz 24.43MB Simrad multibeam vendor format
0082_20061111_160923_raw.all.mb56.gz 24.82MB Simrad multibeam vendor format
0083_20061111_162839_raw.all.mb56.gz 23.94MB Simrad multibeam vendor format
0084_20061111_164639_raw.all.mb56.gz 7.91MB Simrad multibeam vendor format
0085_20061111_165232_raw.all.mb56.gz 30.37MB Simrad multibeam vendor format
0086_20061111_171450_raw.all.mb56.gz 17.38MB Simrad multibeam vendor format
0089_20061111_202459_raw.all.mb56.gz 72.30MB Simrad multibeam vendor format

Metadata Files: 1

Files File Size Description
NF-07-03-CSC_Multibeam.xml NGDC created ISO metadata